| time (UTC) | temp C | wind direction | speed KPH | gust KPH | rain 1hr cm | rain 24hr cm | rain mn cm | humidity % | barometer mb |
| 20260507134750 | 11 | 221 | 0.0 | 0.0 | 0.00 | 0.05 | 0.05 | 73 | 1014.7 |
| 20260507134247 | 11 | 209 | 1.6 | 1.6 | 0.00 | 0.05 | 0.05 | 68 | 1014.6 |
| 20260507133742 | 11 | 226 | 0.0 | 0.0 | 0.00 | 0.05 | 0.05 | 76 | 1014.8 |
| 20260507133239 | 11 | 226 | 0.0 | 1.6 | 0.00 | 0.05 | 0.05 | 74 | 1014.6 |
| 20260507132737 | 11 | 225 | 0.0 | 0.0 | 0.00 | 0.05 | 0.05 | 74 | 1014.7 |
| 20260507132233 | 11 | 220 | 0.0 | 0.0 | 0.00 | 0.05 | 0.05 | 73 | 1014.7 |
| 20260507131730 | 11 | 248 | 0.0 | 0.0 | 0.00 | 0.05 | 0.05 | 72 | 1014.6 |
| 20260507131227 | 11 | 217 | 0.0 | 0.0 | 0.00 | 0.05 | 0.05 | 76 | 1014.7 |
| 20260507130724 | 11 | 217 | 0.0 | 0.0 | 0.00 | 0.05 | 0.05 | 76 | 1014.7 |
| 20260507130222 | 11 | 217 | 0.0 | 0.0 | 0.00 | 0.05 | 0.05 | 76 | 1014.9 |
| 20260507125720 | 11 | 213 | 0.0 | 0.0 | 0.00 | 0.05 | 0.05 | 73 | 1014.7 |
| 20260507125217 | 11 | 199 | 0.0 | 1.6 | 0.00 | 0.05 | 0.05 | 75 | 1014.8 |
| 20260507124714 | 11 | 220 | 0.0 | 0.0 | 0.00 | 0.05 | 0.05 | 75 | 1014.7 |
| 20260507124211 | 11 | 217 | 0.0 | 0.0 | 0.00 | 0.05 | 0.05 | 75 | 1014.8 |
| 20260507123709 | 11 | 219 | 0.0 | 0.0 | 0.00 | 0.05 | 0.05 | 75 | 1014.4 |
| 20260507123206 | 11 | 215 | 0.0 | 0.0 | 0.00 | 0.05 | 0.05 | 75 | 1014.5 |
| 20260507122701 | 11 | 232 | 0.0 | 0.0 | 0.00 | 0.05 | 0.05 | 72 | 1014.5 |
| 20260507122157 | 11 | 227 | 0.0 | 1.6 | 0.00 | 0.05 | 0.05 | 75 | 1014.7 |
| 20260507121653 | 11 | 222 | 0.0 | 0.0 | 0.00 | 0.05 | 0.05 | 75 | 1014.6 |
| 20260507121149 | 11 | 225 | 0.0 | 0.0 | 0.00 | 0.05 | 0.05 | 73 | 1014.4 |
| 20260507120646 | 11 | 221 | 0.0 | 0.0 | 0.00 | 0.05 | 0.05 | 72 | 1014.4 |
| 20260507120142 | 11 | 228 | 1.6 | 1.6 | 0.00 | 0.05 | 0.05 | 72 | 1014.4 |
| 20260507115639 | 11 | 233 | 1.6 | 1.6 | 0.00 | 0.05 | 0.05 | 74 | 1014.4 |
| 20260507115134 | 11 | 217 | 0.0 | 0.0 | 0.00 | 0.05 | 0.05 | 75 | 1014.3 |
| 20260507114630 | 11 | 217 | 0.0 | 0.0 | 0.00 | 0.05 | 0.05 | 75 | 1014.4 |
| 20260507114128 | 11 | 269 | 3.2 | 4.8 | 0.00 | 0.05 | 0.05 | 77 | 1014.4 |
| 20260507113625 | 11 | 221 | 0.0 | 0.0 | 0.00 | 0.05 | 0.05 | 78 | 1014.4 |
| 20260507113122 | 11 | 218 | 0.0 | 0.0 | 0.00 | 0.05 | 0.05 | 77 | 1014.2 |
| 20260507112620 | 11 | 234 | 0.0 | 1.6 | 0.00 | 0.05 | 0.05 | 77 | 1014.5 |
| 20260507112116 | 11 | 217 | 0.0 | 0.0 | 0.00 | 0.05 | 0.05 | 78 | 1014.2 |
| 20260507111614 | 11 | 222 | 0.0 | 0.0 | 0.00 | 0.05 | 0.05 | 77 | 1014.4 |
| 20260507111110 | 11 | 222 | 0.0 | 1.6 | 0.00 | 0.05 | 0.05 | 77 | 1014.4 |
| 20260507110607 | 11 | 222 | 0.0 | 0.0 | 0.00 | 0.05 | 0.05 | 78 | 1014.2 |
| 20260507110103 | 11 | 220 | 0.0 | 0.0 | 0.00 | 0.05 | 0.05 | 80 | 1014.0 |
| 20260507105600 | 11 | 219 | 0.0 | 0.0 | 0.00 | 0.05 | 0.05 | 79 | 1014.4 |
| 20260507105056 | 11 | 217 | 0.0 | 0.0 | 0.00 | 0.05 | 0.05 | 80 | 1014.2 |
| 20260507104554 | 11 | 226 | 0.0 | 0.0 | 0.00 | 0.05 | 0.05 | 80 | 1014.1 |
| 20260507104050 | 11 | 216 | 0.0 | 0.0 | 0.00 | 0.05 | 0.05 | 79 | 1014.2 |
| 20260507103546 | 11 | 220 | 0.0 | 0.0 | 0.00 | 0.05 | 0.05 | 78 | 1014.0 |
| 20260507103043 | 11 | 211 | 0.0 | 1.6 | 0.00 | 0.05 | 0.05 | 79 | 1013.9 |
| 20260507102539 | 11 | 225 | 0.0 | 0.0 | 0.00 | 0.05 | 0.05 | 79 | 1014.0 |
| 20260507102036 | 11 | 218 | 0.0 | 0.0 | 0.00 | 0.05 | 0.05 | 85 | 1013.6 |
| 20260507101531 | 11 | 216 | 0.0 | 0.0 | 0.00 | 0.05 | 0.05 | 87 | 1013.6 |
| 20260507101028 | 11 | 216 | 0.0 | 0.0 | 0.00 | 0.05 | 0.05 | 87 | 1013.6 |
| 20260507100525 | 11 | 216 | 0.0 | 0.0 | 0.00 | 0.05 | 0.05 | 87 | 1013.4 |
| 20260507100023 | 11 | 232 | 0.0 | 0.0 | 0.00 | 0.05 | 0.05 | 88 | 1013.4 |
| 20260507095521 | 11 | 236 | 0.0 | 1.6 | 0.00 | 0.05 | 0.05 | 90 | 1013.5 |
| 20260507095017 | 11 | 226 | 0.0 | 0.0 | 0.00 | 0.05 | 0.05 | 91 | 1013.8 |
| 20260507094514 | 11 | 223 | 0.0 | 0.0 | 0.00 | 0.05 | 0.05 | 92 | 1013.5 |
| 20260507094011 | 11 | 211 | 0.0 | 0.0 | 0.00 | 0.05 | 0.05 | 92 | 1013.7 |
| 20260507093508 | 11 | 220 | 0.0 | 0.0 | 0.00 | 0.05 | 0.05 | 92 | 1013.5 |
| 20260507093007 | 11 | 214 | 0.0 | 0.0 | 0.00 | 0.05 | 0.05 | 92 | 1013.1 |
| 20260507092503 | 11 | 216 | 0.0 | 0.0 | 0.00 | 0.05 | 0.05 | 92 | 1013.4 |
| 20260507091959 | 11 | 216 | 0.0 | 0.0 | 0.00 | 0.05 | 0.05 | 92 | 1013.4 |
| 20260507091456 | 11 | 215 | 0.0 | 0.0 | 0.00 | 0.05 | 0.05 | 92 | 1013.3 |
| 20260507090952 | 11 | 215 | 0.0 | 0.0 | 0.00 | 0.05 | 0.05 | 91 | 1013.4 |
| 20260507090448 | 11 | 216 | 0.0 | 0.0 | 0.00 | 0.05 | 0.05 | 91 | 1013.5 |
| 20260507085945 | 11 | 220 | 0.0 | 1.6 | 0.00 | 0.05 | 0.05 | 91 | 1013.8 |
| 20260507085442 | 11 | 251 | 1.6 | 1.6 | 0.00 | 0.05 | 0.05 | 91 | 1013.4 |
| 20260507084939 | 11 | 251 | 0.0 | 1.6 | 0.00 | 0.05 | 0.05 | 91 | 1013.0 |
| 20260507084435 | 11 | 221 | 0.0 | 0.0 | 0.00 | 0.05 | 0.05 | 92 | 1013.3 |
| 20260507083933 | 11 | 224 | 0.0 | 0.0 | 0.00 | 0.05 | 0.05 | 93 | 1013.3 |
| 20260507083429 | 11 | 219 | 0.0 | 0.0 | 0.00 | 0.05 | 0.05 | 93 | 1013.3 |
| 20260507082925 | 11 | 214 | 0.0 | 0.0 | 0.00 | 0.05 | 0.05 | 94 | 1012.9 |
| 20260507082421 | 11 | 214 | 0.0 | 0.0 | 0.00 | 0.05 | 0.05 | 94 | 1013.0 |
| 20260507081918 | 11 | 219 | 0.0 | 0.0 | 0.00 | 0.05 | 0.05 | 93 | 1012.9 |
| 20260507081414 | 11 | 214 | 0.0 | 0.0 | 0.00 | 0.05 | 0.05 | 93 | 1012.8 |
| 20260507080911 | 11 | 214 | 0.0 | 0.0 | 0.00 | 0.05 | 0.05 | 93 | 1012.5 |
| 20260507080407 | 11 | 231 | 0.0 | 0.0 | 0.00 | 0.05 | 0.05 | 94 | 1012.6 |
| 20260507075903 | 11 | 223 | 0.0 | 0.0 | 0.00 | 0.05 | 0.05 | 93 | 1012.7 |
| 20260507075359 | 11 | 220 | 0.0 | 0.0 | 0.00 | 0.05 | 0.05 | 94 | 1012.3 |
| 20260507074856 | 11 | 221 | 0.0 | 0.0 | 0.00 | 0.05 | 0.05 | 93 | 1012.4 |
| 20260507074353 | 11 | 217 | 0.0 | 0.0 | 0.00 | 0.05 | 0.05 | 93 | 1012.6 |
| 20260507073850 | 11 | 223 | 0.0 | 0.0 | 0.00 | 0.05 | 0.05 | 92 | 1012.3 |
| 20260507073347 | 11 | 222 | 0.0 | 1.6 | 0.00 | 0.05 | 0.05 | 92 | 1012.3 |
| 20260507072844 | 12 | 252 | 0.0 | 1.6 | 0.00 | 0.05 | 0.05 | 91 | 1012.4 |
| 20260507072341 | 12 | 226 | 1.6 | 1.6 | 0.00 | 0.05 | 0.05 | 91 | 1012.5 |
| 20260507071838 | 12 | 232 | 1.6 | 1.6 | 0.00 | 0.05 | 0.05 | 91 | 1012.5 |
| 20260507071336 | 12 | 228 | 0.0 | 1.6 | 0.00 | 0.05 | 0.05 | 91 | 1012.3 |
| 20260507070832 | 12 | 217 | 0.0 | 0.0 | 0.00 | 0.05 | 0.05 | 91 | 1012.4 |
| 20260507070329 | 12 | 219 | 0.0 | 0.0 | 0.00 | 0.05 | 0.05 | 91 | 1012.5 |
| 20260507065826 | 12 | 225 | 0.0 | 1.6 | 0.00 | 0.05 | 0.05 | 91 | 1012.5 |
| 20260507065322 | 12 | 223 | 1.6 | 3.2 | 0.00 | 0.05 | 0.05 | 91 | 1012.5 |
| 20260507064820 | 12 | 222 | 1.6 | 3.2 | 0.00 | 0.05 | 0.05 | 91 | 1012.6 |
| 20260507064318 | 12 | 214 | 1.6 | 1.6 | 0.00 | 0.05 | 0.05 | 91 | 1012.6 |
| 20260507063816 | 12 | 236 | 0.0 | 1.6 | 0.00 | 0.05 | 0.05 | 91 | 1012.6 |
| 20260507063312 | 12 | 241 | 1.6 | 1.6 | 0.00 | 0.05 | 0.05 | 92 | 1012.6 |
| 20260507062809 | 12 | 235 | 3.2 | 3.2 | 0.00 | 0.05 | 0.05 | 93 | 1012.9 |
| 20260507062306 | 12 | 230 | 1.6 | 1.6 | 0.00 | 0.05 | 0.05 | 94 | 1012.6 |
| 20260507061804 | 12 | 221 | 0.0 | 0.0 | 0.00 | 0.05 | 0.05 | 95 | 1012.4 |
| 20260507061302 | 12 | 227 | 0.0 | 0.0 | 0.00 | 0.05 | 0.05 | 95 | 1012.2 |
| 20260507060800 | 12 | 232 | 0.0 | 0.0 | 0.00 | 0.05 | 0.05 | 95 | 1012.4 |
| 20260507060256 | 12 | 219 | 0.0 | 0.0 | 0.18 | 0.05 | 0.05 | 95 | 1012.7 |
| 20260507055753 | 12 | 224 | 0.0 | 0.0 | 0.18 | 0.05 | 0.05 | 95 | 1012.7 |
| 20260507055248 | 13 | 217 | 0.0 | 0.0 | 0.00 | 0.03 | 0.03 | 95 | 1012.9 |
| 20260507054745 | 13 | 218 | 0.0 | 0.0 | 0.00 | 0.03 | 0.03 | 95 | 1012.5 |
| 20260507054241 | 13 | 221 | 0.0 | 0.0 | 0.00 | 0.03 | 0.03 | 94 | 1012.5 |
| 20260507053739 | 13 | 228 | 0.0 | 1.6 | 0.00 | 0.03 | 0.03 | 94 | 1013.0 |
| 20260507053236 | 13 | 223 | 0.0 | 0.0 | 0.00 | 0.03 | 0.03 | 93 | 1012.8 |
| 20260507052735 | 13 | 245 | 0.0 | 0.0 | 0.00 | 0.03 | 0.03 | 93 | 1012.8 |
| 20260507052231 | 13 | 225 | 0.0 | 0.0 | 0.00 | 0.03 | 0.03 | 93 | 1012.6 |
| 20260507051729 | 13 | 238 | 1.6 | 1.6 | 0.13 | 0.03 | 0.03 | 92 | 1012.6 |
| 20260507051226 | 13 | 235 | 1.6 | 1.6 | 0.13 | 0.03 | 0.03 | 92 | 1012.9 |
| 20260507050722 | 13 | 238 | 1.6 | 1.6 | 0.00 | 0.00 | 0.00 | 92 | 1012.7 |
| 20260507050220 | 13 | 225 | 1.6 | 1.6 | 0.00 | 0.00 | 0.00 | 91 | 1012.6 |
| 20260507045716 | 13 | 220 | 0.0 | 0.0 | 0.00 | 0.00 | 0.00 | 91 | 1012.7 |
| 20260507045212 | 13 | 195 | 1.6 | 3.2 | 0.00 | 0.00 | 0.00 | 90 | 1012.9 |
| 20260507044710 | 13 | 231 | 3.2 | 4.8 | 0.00 | 0.00 | 0.00 | 89 | 1012.4 |
| 20260507044206 | 13 | 215 | 0.0 | 0.0 | 0.00 | 0.00 | 0.00 | 89 | 1012.6 |
| 20260507043702 | 14 | 225 | 0.0 | 1.6 | 0.00 | 0.00 | 0.00 | 88 | 1012.4 |
| 20260507043159 | 14 | 259 | 1.6 | 1.6 | 0.00 | 0.00 | 0.00 | 87 | 1012.7 |
| 20260507042656 | 14 | 223 | 0.0 | 0.0 | 0.00 | 0.00 | 0.00 | 87 | 1013.0 |
| 20260507042150 | 14 | 215 | 0.0 | 0.0 | 0.00 | 0.00 | 0.00 | 86 | 1012.7 |
| 20260507041648 | 14 | 224 | 1.6 | 3.2 | 0.00 | 0.00 | 0.00 | 86 | 1012.9 |
| 20260507041144 | 15 | 226 | 1.6 | 1.6 | 0.00 | 0.00 | 0.00 | 85 | 1012.7 |
| 20260507040642 | 15 | 233 | 1.6 | 1.6 | 0.00 | 0.00 | 0.00 | 85 | 1012.3 |
| 20260507040138 | 15 | 230 | 0.0 | 1.6 | 0.00 | 0.00 | 0.00 | 84 | 1012.6 |
| 20260507035634 | 15 | 225 | 0.0 | 0.0 | 0.00 | 0.74 | 0.74 | 84 | 1012.3 |
| 20260507035130 | 15 | 230 | 0.0 | 0.0 | 0.00 | 0.74 | 0.74 | 83 | 1012.0 |
| 20260507034627 | 15 | 224 | 0.0 | 0.0 | 0.00 | 0.74 | 0.74 | 82 | 1011.8 |
| 20260507034125 | 16 | 223 | 0.0 | 0.0 | 0.00 | 0.74 | 0.74 | 80 | 1012.1 |
| 20260507033623 | 16 | 232 | 1.6 | 1.6 | 0.00 | 0.74 | 0.74 | 78 | 1012.3 |
| 20260507033119 | 16 | 250 | 1.6 | 1.6 | 0.00 | 0.74 | 0.74 | 78 | 1012.1 |
| 20260507032617 | 16 | 225 | 0.0 | 1.6 | 0.00 | 0.74 | 0.74 | 79 | 1011.9 |
| 20260507032113 | 16 | 231 | 0.0 | 1.6 | 0.00 | 0.74 | 0.74 | 78 | 1012.2 |
| 20260507031610 | 16 | 228 | 1.6 | 1.6 | 0.00 | 0.74 | 0.74 | 78 | 1012.3 |
| 20260507031106 | 16 | 245 | 1.6 | 3.2 | 0.00 | 0.74 | 0.74 | 80 | 1012.0 |
| 20260507030603 | 16 | 226 | 0.0 | 1.6 | 0.00 | 0.74 | 0.74 | 81 | 1012.0 |
| 20260507030101 | 16 | 221 | 1.6 | 1.6 | 0.00 | 0.74 | 0.74 | 81 | 1012.0 |
| 20260507025558 | 16 | 273 | 1.6 | 3.2 | 0.00 | 0.74 | 0.74 | 82 | 1011.8 |
| 20260507025055 | 16 | 232 | 1.6 | 1.6 | 0.00 | 0.74 | 0.74 | 83 | 1011.6 |
| 20260507024553 | 16 | 218 | 0.0 | 0.0 | 0.00 | 0.74 | 0.74 | 83 | 1011.8 |
| 20260507024050 | 16 | 258 | 1.6 | 1.6 | 0.00 | 0.74 | 0.74 | 82 | 1011.6 |
| 20260507023545 | 16 | 266 | 1.6 | 3.2 | 0.00 | 0.74 | 0.74 | 82 | 1011.5 |
| 20260507023043 | 17 | 248 | 1.6 | 3.2 | 0.00 | 0.74 | 0.74 | 82 | 1011.7 |
| 20260507022539 | 17 | 248 | 1.6 | 1.6 | 0.00 | 0.74 | 0.74 | 84 | 1011.5 |
| 20260507022035 | 17 | 232 | 1.6 | 1.6 | 0.00 | 0.74 | 0.74 | 85 | 1011.7 |
| 20260507021531 | 17 | 219 | 1.6 | 1.6 | 0.00 | 0.74 | 0.74 | 85 | 1011.5 |
| 20260507021028 | 17 | 230 | 1.6 | 1.6 | 0.00 | 0.74 | 0.74 | 86 | 1011.4 |
| 20260507020525 | 17 | 222 | 0.0 | 0.0 | 0.00 | 0.74 | 0.74 | 86 | 1011.3 |
| 20260507020022 | 17 | 239 | 1.6 | 1.6 | 0.00 | 0.74 | 0.74 | 86 | 1011.4 |
| 20260507015520 | 17 | 239 | 1.6 | 1.6 | 0.00 | 0.74 | 0.74 | 86 | 1011.2 |
| 20260507015018 | 17 | 255 | 0.0 | 1.6 | 0.00 | 0.74 | 0.74 | 86 | 1011.6 |
| 20260507014514 | 17 | 222 | 0.0 | 1.6 | 0.00 | 0.74 | 0.74 | 86 | 1011.4 |
| 20260507014010 | 17 | 237 | 1.6 | 1.6 | 0.00 | 0.74 | 0.74 | 86 | 1011.4 |
| 20260507013506 | 17 | 280 | 4.8 | 4.8 | 0.00 | 0.74 | 0.74 | 85 | 1011.5 |
| 20260507013004 | 17 | 235 | 1.6 | 1.6 | 0.00 | 0.74 | 0.74 | 85 | 1011.3 |
| 20260507012501 | 18 | 214 | 1.6 | 3.2 | 0.00 | 0.74 | 0.74 | 85 | 1011.5 |
| 20260507011957 | 18 | 222 | 0.0 | 0.0 | 0.00 | 0.74 | 0.74 | 84 | 1011.7 |
| 20260507011454 | 18 | 132 | 1.6 | 1.6 | 0.00 | 0.74 | 0.74 | 84 | 1011.7 |
| 20260507010950 | 18 | 244 | 1.6 | 1.6 | 0.00 | 0.74 | 0.74 | 84 | 1011.5 |
| 20260507010444 | 18 | 167 | 1.6 | 1.6 | 0.00 | 0.74 | 0.74 | 83 | 1011.5 |
| 20260507005941 | 18 | 240 | 3.2 | 3.2 | 0.00 | 0.74 | 0.74 | 82 | 1011.8 |
| 20260507005439 | 18 | 236 | 3.2 | 8.0 | 0.00 | 0.74 | 0.74 | 81 | 1011.5 |
| 20260507004935 | 18 | 293 | 3.2 | 3.2 | 0.00 | 0.74 | 0.74 | 84 | 1011.4 |
| 20260507004432 | 19 | 227 | 0.0 | 0.0 | 0.00 | 0.74 | 0.74 | 86 | 1011.2 |
| 20260507003930 | 19 | 217 | 0.0 | 0.0 | 0.00 | 0.74 | 0.74 | 86 | 1011.0 |
| 20260507003425 | 19 | 216 | 0.0 | 0.0 | 0.00 | 0.74 | 0.74 | 86 | 1011.0 |
| 20260507002920 | 19 | 228 | 0.0 | 0.0 | 0.00 | 0.74 | 0.74 | 85 | 1010.9 |
| 20260507002417 | 19 | 217 | 0.0 | 0.0 | 0.00 | 0.74 | 0.74 | 85 | 1011.1 |
| 20260507001914 | 19 | 177 | 0.0 | 0.0 | 0.00 | 0.74 | 0.74 | 85 | 1011.1 |
| 20260507001410 | 19 | 221 | 0.0 | 0.0 | 0.00 | 0.74 | 0.74 | 85 | 1010.8 |
| 20260507000908 | 19 | 218 | 0.0 | 0.0 | 0.00 | 0.74 | 0.74 | 85 | 1010.9 |
| 20260507000405 | 19 | 217 | 0.0 | 0.0 | 0.00 | 0.74 | 0.74 | 85 | 1010.9 |
| 20260506235859 | 19 | 221 | 0.0 | 1.6 | 0.00 | 0.74 | 0.74 | 84 | 1010.6 |
| 20260506235356 | 19 | 184 | 1.6 | 1.6 | 0.00 | 0.74 | 0.74 | 85 | 1010.7 |
| 20260506234846 | 19 | 215 | 0.0 | 0.0 | 0.00 | 0.74 | 0.74 | 85 | 1010.7 |
| 20260506234344 | 20 | 217 | 0.0 | 0.0 | 0.00 | 0.74 | 0.74 | 84 | 1010.7 |
| 20260506233842 | 20 | 197 | 0.0 | 1.6 | 0.00 | 0.74 | 0.74 | 84 | 1010.4 |
| 20260506233337 | 20 | 165 | 3.2 | 3.2 | 0.00 | 0.74 | 0.74 | 84 | 1010.1 |
| 20260506232835 | 20 | 216 | 0.0 | 0.0 | 0.00 | 0.74 | 0.74 | 83 | 1010.4 |
| 20260506232330 | 20 | 212 | 0.0 | 0.0 | 0.00 | 0.74 | 0.74 | 83 | 1010.5 |
| 20260506231827 | 20 | 221 | 0.0 | 0.0 | 0.00 | 0.74 | 0.74 | 83 | 1010.3 |
| 20260506231325 | 20 | 207 | 1.6 | 1.6 | 0.00 | 0.74 | 0.74 | 83 | 1010.1 |
| 20260506230822 | 20 | 204 | 1.6 | 1.6 | 0.00 | 0.74 | 0.74 | 82 | 1010.2 |
| 20260506230319 | 20 | 218 | 0.0 | 0.0 | 0.00 | 0.74 | 0.74 | 83 | 1010.2 |
| 20260506225815 | 20 | 213 | 0.0 | 0.0 | 0.00 | 0.74 | 0.74 | 83 | 1010.2 |
| 20260506225312 | 20 | 216 | 0.0 | 0.0 | 0.00 | 0.74 | 0.74 | 83 | 1010.1 |
| 20260506224809 | 20 | 223 | 0.0 | 0.0 | 0.00 | 0.74 | 0.74 | 82 | 1010.2 |
| 20260506224306 | 20 | 225 | 0.0 | 0.0 | 0.00 | 0.74 | 0.74 | 81 | 1010.2 |
| 20260506223803 | 20 | 215 | 0.0 | 1.6 | 0.00 | 0.74 | 0.74 | 81 | 1009.9 |
| 20260506223257 | 20 | 210 | 0.0 | 1.6 | 0.00 | 0.74 | 0.74 | 81 | 1009.9 |
| 20260506222754 | 20 | 207 | 0.0 | 0.0 | 0.00 | 0.74 | 0.74 | 81 | 1010.1 |
| 20260506222250 | 20 | 231 | 0.0 | 1.6 | 0.00 | 0.74 | 0.74 | 81 | 1010.1 |
| 20260506221743 | 20 | 204 | 1.6 | 1.6 | 0.00 | 0.74 | 0.74 | 81 | 1010.2 |
| 20260506221240 | 20 | 51 | 0.0 | 0.0 | 0.00 | 0.74 | 0.74 | 81 | 1010.1 |
| 20260506220737 | 20 | 197 | 1.6 | 1.6 | 0.00 | 0.74 | 0.74 | 81 | 1010.2 |
| 20260506220232 | 20 | 209 | 1.6 | 1.6 | 0.00 | 0.74 | 0.74 | 81 | 1010.2 |
| 20260506215729 | 20 | 256 | 0.0 | 1.6 | 0.00 | 0.74 | 0.74 | 81 | 1010.2 |
| 20260506215225 | 20 | 214 | 0.0 | 0.0 | 0.00 | 0.74 | 0.74 | 80 | 1010.2 |
| 20260506214721 | 20 | 230 | 1.6 | 1.6 | 0.00 | 0.74 | 0.74 | 80 | 1010.3 |
| 20260506214219 | 20 | 221 | 0.0 | 0.0 | 0.00 | 0.74 | 0.74 | 80 | 1010.1 |
| 20260506213717 | 20 | 228 | 1.6 | 1.6 | 0.00 | 0.74 | 0.74 | 80 | 1010.1 |
| 20260506213214 | 20 | 242 | 1.6 | 1.6 | 0.00 | 0.74 | 0.74 | 80 | 1010.1 |
| 20260506212711 | 20 | 248 | 3.2 | 3.2 | 0.00 | 0.74 | 0.74 | 79 | 1009.8 |
| 20260506212206 | 21 | 219 | 0.0 | 0.0 | 0.00 | 0.74 | 0.74 | 79 | 1009.8 |
| 20260506211702 | 21 | 230 | 0.0 | 0.0 | 0.00 | 0.74 | 0.74 | 78 | 1009.9 |
| 20260506211159 | 21 | 217 | 1.6 | 1.6 | 0.00 | 0.74 | 0.74 | 76 | 1009.8 |
| 20260506210655 | 21 | 17 | 1.6 | 3.2 | 0.00 | 0.74 | 0.74 | 78 | 1009.8 |
| 20260506210151 | 21 | 292 | 4.8 | 4.8 | 0.00 | 0.74 | 0.74 | 76 | 1009.6 |
| 20260506205649 | 21 | 192 | 1.6 | 1.6 | 0.00 | 0.74 | 0.74 | 77 | 1009.5 |
| 20260506205144 | 21 | 207 | 1.6 | 1.6 | 0.00 | 0.74 | 0.74 | 78 | 1009.4 |
| 20260506204642 | 21 | 110 | 4.8 | 9.7 | 0.00 | 0.74 | 0.74 | 76 | 1009.5 |
| 20260506204139 | 21 | 150 | 8.0 | 11.3 | 0.00 | 0.74 | 0.74 | 76 | 1009.4 |
| 20260506203637 | 21 | 356 | 3.2 | 3.2 | 0.00 | 0.74 | 0.74 | 76 | 1009.6 |
| 20260506203134 | 21 | 200 | 0.0 | 1.6 | 0.00 | 0.74 | 0.74 | 78 | 1009.5 |
| 20260506202632 | 20 | 223 | 0.0 | 1.6 | 0.00 | 0.74 | 0.74 | 78 | 1009.6 |
| 20260506202128 | 20 | 199 | 1.6 | 1.6 | 0.00 | 0.74 | 0.74 | 78 | 1009.7 |
| 20260506201625 | 20 | 264 | 3.2 | 3.2 | 0.00 | 0.74 | 0.74 | 78 | 1009.8 |
| 20260506201121 | 21 | 192 | 1.6 | 1.6 | 0.00 | 0.74 | 0.74 | 78 | 1009.7 |
| 20260506200618 | 21 | 284 | 1.6 | 1.6 | 0.00 | 0.74 | 0.74 | 78 | 1009.7 |
| 20260506200115 | 21 | 219 | 1.6 | 1.6 | 0.00 | 0.74 | 0.74 | 76 | 1009.9 |
| 20260506195611 | 21 | 57 | 3.2 | 3.2 | 0.00 | 0.74 | 0.74 | 75 | 1009.6 |
| 20260506195108 | 21 | 53 | 0.0 | 1.6 | 0.00 | 0.74 | 0.74 | 78 | 1009.6 |
| 20260506194605 | 21 | 241 | 3.2 | 3.2 | 0.00 | 0.74 | 0.74 | 76 | 1009.4 |
| 20260506194101 | 21 | 218 | 3.2 | 3.2 | 0.00 | 0.74 | 0.74 | 77 | 1009.6 |
| 20260506193559 | 21 | 216 | 1.6 | 1.6 | 0.00 | 0.74 | 0.74 | 79 | 1009.7 |
| 20260506193056 | 21 | 188 | 1.6 | 1.6 | 0.00 | 0.74 | 0.74 | 79 | 1009.6 |
| 20260506192553 | 21 | 196 | 1.6 | 3.2 | 0.00 | 0.74 | 0.74 | 77 | 1009.7 |
| 20260506192049 | 21 | 116 | 4.8 | 8.0 | 0.00 | 0.74 | 0.74 | 77 | 1009.4 |
| 20260506191546 | 20 | 233 | 0.0 | 1.6 | 0.00 | 0.74 | 0.74 | 79 | 1009.5 |
| 20260506191041 | 20 | 30 | 1.6 | 3.2 | 0.00 | 0.74 | 0.74 | 79 | 1009.8 |
| 20260506190539 | 20 | 241 | 1.6 | 1.6 | 0.00 | 0.74 | 0.74 | 79 | 1010.0 |
| 20260506190036 | 20 | 214 | 1.6 | 1.6 | 0.00 | 0.74 | 0.74 | 80 | 1010.0 |
| 20260506185533 | 20 | 217 | 0.0 | 1.6 | 0.00 | 0.74 | 0.74 | 82 | 1010.0 |
| 20260506185030 | 20 | 178 | 0.0 | 1.6 | 0.00 | 0.74 | 0.74 | 81 | 1010.1 |
| 20260506184527 | 19 | 289 | 4.8 | 8.0 | 0.00 | 0.74 | 0.74 | 81 | 1010.1 |
| 20260506184024 | 19 | 60 | 3.2 | 3.2 | 0.00 | 0.74 | 0.74 | 82 | 1010.2 |
| 20260506183520 | 19 | 11 | 3.2 | 3.2 | 0.00 | 0.74 | 0.74 | 82 | 1010.4 |
| 20260506183017 | 19 | 212 | 0.0 | 0.0 | 0.00 | 0.74 | 0.74 | 83 | 1010.5 |
| 20260506182515 | 19 | 249 | 3.2 | 3.2 | 0.00 | 0.74 | 0.74 | 84 | 1010.2 |
| 20260506182011 | 18 | 141 | 1.6 | 1.6 | 0.00 | 0.74 | 0.74 | 84 | 1010.3 |
| 20260506181509 | 18 | 37 | 1.6 | 1.6 | 0.00 | 0.74 | 0.74 | 84 | 1010.1 |
| 20260506181006 | 18 | 170 | 3.2 | 4.8 | 0.00 | 0.74 | 0.74 | 84 | 1010.2 |
| 20260506180503 | 18 | 51 | 1.6 | 3.2 | 0.00 | 0.74 | 0.74 | 85 | 1010.2 |
| 20260506175959 | 18 | 153 | 4.8 | 8.0 | 0.00 | 0.74 | 0.74 | 86 | 1010.3 |
| 20260506175455 | 18 | 169 | 1.6 | 3.2 | 0.00 | 0.74 | 0.74 | 86 | 1010.4 |
| 20260506174952 | 18 | 60 | 1.6 | 1.6 | 0.00 | 0.74 | 0.74 | 86 | 1010.5 |
| 20260506174451 | 17 | 335 | 4.8 | 8.0 | 0.00 | 0.74 | 0.74 | 88 | 1010.4 |
| 20260506173946 | 17 | 212 | 3.2 | 4.8 | 0.00 | 0.74 | 0.74 | 89 | 1010.5 |
| 20260506173444 | 17 | 142 | 3.2 | 3.2 | 0.00 | 0.74 | 0.74 | 90 | 1010.4 |
| 20260506172941 | 17 | 336 | 1.6 | 1.6 | 0.00 | 0.74 | 0.74 | 91 | 1010.5 |
| 20260506172438 | 17 | 55 | 4.8 | 4.8 | 0.00 | 0.74 | 0.74 | 92 | 1010.4 |
| 20260506171934 | 17 | 153 | 1.6 | 3.2 | 0.00 | 0.74 | 0.74 | 94 | 1010.3 |
| 20260506171432 | 16 | 148 | 4.8 | 4.8 | 0.00 | 0.74 | 0.74 | 94 | 1010.4 |
| 20260506170930 | 16 | 319 | 4.8 | 4.8 | 0.00 | 0.74 | 0.74 | 95 | 1010.7 |
| 20260506170425 | 16 | 253 | 1.6 | 3.2 | 0.00 | 0.74 | 0.74 | 96 | 1010.7 |
| 20260506165919 | 16 | 265 | 1.6 | 1.6 | 0.00 | 0.74 | 0.74 | 96 | 1010.8 |
| 20260506165417 | 16 | 215 | 1.6 | 1.6 | 0.00 | 0.74 | 0.74 | 97 | 1010.7 |
| 20260506164913 | 16 | 166 | 1.6 | 3.2 | 0.00 | 0.74 | 0.74 | 97 | 1010.5 |
| 20260506164409 | 16 | 276 | 1.6 | 1.6 | 0.00 | 0.74 | 0.74 | 98 | 1010.7 |
| 20260506163907 | 16 | 144 | 1.6 | 3.2 | 0.00 | 0.74 | 0.74 | 98 | 1010.8 |
| 20260506163401 | 16 | 12 | 4.8 | 4.8 | 0.00 | 0.74 | 0.74 | 98 | 1010.9 |
| 20260506162856 | 16 | 133 | 6.4 | 11.3 | 0.00 | 0.74 | 0.74 | 98 | 1011.0 |
| 20260506162354 | 15 | 167 | 1.6 | 1.6 | 0.00 | 0.74 | 0.74 | 98 | 1010.9 |
| 20260506161846 | 15 | 347 | 3.2 | 4.8 | 0.00 | 0.74 | 0.74 | 99 | 1010.7 |
| 20260506161343 | 15 | 212 | 0.0 | 0.0 | 0.00 | 0.74 | 0.74 | 99 | 1010.8 |
| 20260506160841 | 15 | 46 | 0.0 | 1.6 | 0.00 | 0.74 | 0.74 | 99 | 1010.8 |
| 20260506160338 | 15 | 117 | 8.0 | 12.9 | 0.00 | 0.74 | 0.74 | 99 | 1011.0 |
| 20260506155836 | 15 | 340 | 1.6 | 3.2 | 0.00 | 0.74 | 0.74 | 99 | 1010.9 |
| 20260506155333 | 15 | 328 | 1.6 | 1.6 | 0.00 | 0.74 | 0.74 | 99 | 1011.0 |
| 20260506153445 | 15 | 205 | 1.6 | 1.6 | 0.00 | 0.74 | 0.74 | 99 | 1011.1 |
| 20260506152942 | 15 | 69 | 6.4 | 12.9 | 0.00 | 0.74 | 0.74 | 99 | 1011.2 |
| 20260506152439 | 15 | 315 | 3.2 | 3.2 | 0.18 | 0.74 | 0.74 | 99 | 1010.9 |
| 20260506151938 | 15 | 21 | 0.0 | 1.6 | 0.18 | 0.74 | 0.74 | 99 | 1011.1 |
| 20260506151434 | 15 | 141 | 1.6 | 3.2 | 0.00 | 0.71 | 0.71 | 99 | 1011.2 |
| 20260506150932 | 15 | 216 | 1.6 | 1.6 | 0.00 | 0.71 | 0.71 | 99 | 1011.4 |
| 20260506150428 | 15 | 217 | 0.0 | 1.6 | 0.00 | 0.71 | 0.71 | 99 | 1011.1 |
| 20260506145925 | 15 | 45 | 1.6 | 1.6 | 0.13 | 0.71 | 0.71 | 99 | 1011.4 |
| 20260506145421 | 15 | 171 | 1.6 | 3.2 | 0.13 | 0.71 | 0.71 | 99 | 1011.4 |
| 20260506144919 | 15 | 31 | 4.8 | 9.7 | 0.00 | 0.69 | 0.69 | 99 | 1011.8 |
| 20260506144415 | 15 | 93 | 3.2 | 3.2 | 0.00 | 0.69 | 0.69 | 99 | 1011.9 |
| 20260506143914 | 15 | 346 | 0.0 | 1.6 | 0.18 | 0.69 | 0.69 | 99 | 1011.9 |
| 20260506143410 | 15 | 353 | 4.8 | 4.8 | 0.18 | 0.69 | 0.69 | 99 | 1011.9 |
| 20260506142909 | 15 | 226 | 1.6 | 1.6 | 0.13 | 0.66 | 0.66 | 99 | 1011.6 |
| 20260506142407 | 15 | 216 | 0.0 | 1.6 | 0.30 | 0.66 | 0.66 | 99 | 1011.8 |
| 20260506141904 | 15 | 193 | 1.6 | 1.6 | 0.30 | 0.64 | 0.64 | 98 | 1011.6 |
| 20260506141402 | 15 | 225 | 1.6 | 1.6 | 0.30 | 0.61 | 0.61 | 98 | 1011.4 |
| 20260506140900 | 15 | 219 | 1.6 | 1.6 | 0.36 | 0.58 | 0.58 | 98 | 1011.4 |
| 20260506140357 | 15 | 348 | 4.8 | 4.8 | 0.48 | 0.56 | 0.56 | 98 | 1011.5 |
| 20260506135854 | 15 | 31 | 3.2 | 3.2 | 0.43 | 0.53 | 0.53 | 98 | 1011.6 |
| 20260506135351 | 15 | 185 | 0.0 | 1.6 | 0.30 | 0.48 | 0.48 | 98 | 1011.4 |
| 20260506134847 | 15 | 293 | 1.6 | 1.6 | 0.48 | 0.46 | 0.46 | 98 | 1011.6 |